Location: Newark
(48.8604°N, 2.3376°E)
Time: 17:51:26
(UTC+00:00)

XW-2C - Pass Details

Date: 09 December 2021
Orbit: 503 x 523 km, 97.5° (Epoch: 17 January)

Event Time Altitude Azimuth Distance (km) Brightness Sun altitude
Rises 17:53:34 0° 202° (SSW) 2,622 ? -18.7°
Reaches altitude 10° 17:56:06 10° 221° (SW) 1,745 ? -19.1°
Maximum altitude 17:58:52 19° 268° (W) 1,277 ? -19.5°
Drops below altitude 10° 18:01:39 10° 315° (NW) 1,765 ? -20.0°
Sets 18:04:15 0° 334° (NNW) 2,663 ? -20.4°
